#timestamp,LO_Frequency,Hit,StdDev 
1610712015.4,286046988.2,N
1610712035.2,286046989.7,N
1610712055.1,286046987.4,N
1610712056.0,286046987.4,N
1610712075.8,286046987.5,N
1610712095.7,286046989.0,N
1610712115.5,286046989.4,N
1610712135.3,286046987.3,N
1610712155.2,286046986.9,Y
1610712175.0,286046998.3,P
1610712175.9,286046998.3,N
1610712195.8,286046996.6,N
1610712215.6,286046997.3,N
1610712235.4,286046994.9,N
1610712255.3,286046997.4,N
1610712275.1,286046997.3,N
1610712295.8,286046999.6,N
1610712315.7,286046998.1,N
1610712335.5,286047000.5,N
1610712355.4,286047000.9,N
1610712375.2,286047001.1,N
1610712395.0,286046998.4,N
1610712395.9,286046998.4,N
1610712415.8,286046997.7,N
1610712435.6,286046997.1,N
1610712455.5,286046997.9,N
1610712475.3,286046993.8,N
1610712495.1,286046993.5,N
1610712515.9,286046994.2,N
1610712535.7,286046994.3,N
1610712555.5,286046994.2,N
1610712575.4,286046994.4,N
1610712595.2,286046991.8,Y
1610712615.1,286046995.1,P
1610712616.0,286046995.1,P
1610712635.8,286046994.9,P
1610712655.6,286046997.3,Y
1610712675.5,286047001.8,P
1610712695.3,286047001.5,N
1610712715.2,286047001.7,N
1610712735.9,286047004.0,N
1610712755.7,286047006.0,N
1610712775.6,286047007.2,N
1610712795.4,286047005.7,N
1610712815.3,286047004.2,N
1610712835.1,286047001.5,N
1610712836.0,286047001.5,N
1610712855.8,286047001.6,N
1610712875.7,286047001.7,N
1610712895.5,286047001.7,N
1610712915.3,286047003.2,N
1610712935.2,286047003.4,N
1610712955.0,286047004.4,N
1610712955.9,286047004.4,N
1610712975.8,286047002.8,N
1610712995.6,286047002.8,N
1610713015.4,286046999.7,N
1610713035.3,286047000.2,N
1610713055.1,286047002.7,N
1610713075.9,286047000.2,N
1610713095.7,286047000.5,N
1610713115.5,286046998.4,N
1610713135.4,286047000.1,N
1610713155.2,286047000.6,N
1610713175.0,286047002.6,N
1610713175.9,286047002.6,N
1610713195.8,286047003.6,N
1610713215.6,286047009.2,Y
1610713235.5,286047002.5,P
1610713255.3,286047000.9,P
1610713275.1,286047004.4,P
1610713295.9,286047004.4,Y
1610713315.7,286046998.5,P
1610713335.6,286046996.6,N
1610713355.4,286046997.3,N
1610713375.2,286046999.3,N
1610713395.1,286046999.2,N
1610713396.0,286046999.2,N
1610713415.8,286047000.5,N
1610713435.7,286047000.3,N
1610713455.5,286047002.4,N
1610713475.3,286046998.8,N
1610713495.2,286046996.8,N
1610713515.0,286046995.4,N
1610713515.9,286046995.4,N
1610713535.7,286046997.6,N
1610713555.6,286046997.9,N
1610713575.4,286046998.0,N
1610713595.3,286046999.1,N
1610713615.1,286047000.0,N
1610713616.0,286047000.0,N
1610713635.8,286047002.0,N
1610713655.7,286047001.8,N
1610713675.5,286046999.9,N
1610713695.4,286046998.8,N
1610713715.2,286046997.4,N
1610713735.0,286046998.0,N
1610713735.9,286046998.0,N
1610713755.8,286047011.9,Y
1610713775.6,286046997.2,P
1610713795.5,286046997.8,N
1610713815.3,286046996.6,P
1610713835.1,286046997.4,Y
1610713855.9,286046996.5,P
1610713905.7,286046997.5,E
1610713915.7,286046999.3,N
1610713935.5,286047000.8,P
1610713955.3,286047000.6,N
1610713975.2,286046999.6,N
1610713995.0,286046999.6,N
1610713995.9,286046999.6,N
1610714015.8,286046999.5,N
1610714035.6,286046999.6,N
1610714055.4,286046999.5,N
1610714075.3,286046999.6,N
1610714095.1,286046994.9,Y
1610714115.8,286046996.9,P
1610714135.7,286046996.8,N
1610714155.5,286046996.7,N
1610714175.4,286046997.3,N
1610714195.2,286046999.6,N
1610714215.0,286046996.7,N
1610714215.9,286046996.7,N
1610714235.8,286046999.6,N
1610714255.6,286046996.5,N
1610714275.5,286046998.0,N
1610714295.3,286046995.1,Y
1610714315.1,286046998.8,P
1610714335.9,286046998.2,P
1610714355.7,286047001.2,N
1610714375.6,286046998.1,N
1610714395.4,286046998.7,N
1610714415.2,286047001.1,N
1610714435.1,286046998.3,N
1610714436.0,286046998.3,N
1610714455.8,286046996.8,N
1610714475.6,286046997.7,N
1610714495.5,286046997.6,N
1610714515.3,286046995.7,Y
1610714535.2,286047002.7,P
1610714555.9,286047004.9,N
1610714575.7,286047003.2,N
1610714595.6,286047003.8,N
1610714615.4,286047003.4,N
1610714635.2,286047003.8,N
1610714655.1,286047003.7,N
1610714656.0,286047003.7,N
1610714675.8,286047001.7,N
1610714695.7,286047004.3,N
1610714715.5,286047002.7,N
1610714735.3,286047000.5,N
1610714755.2,286047000.7,N
1610714775.0,286047000.8,N
1610714775.9,286047000.8,N
1610714795.8,286046998.1,N
1610714815.6,286046998.2,N
1610714835.4,286047000.8,N
1610714855.3,286047002.0,N
1610714875.1,286047001.9,N
1610714895.8,286047001.5,N
1610714915.7,286047001.6,N
1610714935.5,286047000.4,N
1610714955.4,286046998.1,N
1610714975.2,286046998.3,N
1610714995.0,286046998.7,N
1610714995.9,286046998.7,N
1610715015.8,286047000.2,N
1610715035.6,286047002.2,N
1610715055.5,286047001.5,N
1610715075.3,286047001.9,N
1610715095.1,286047005.7,N
1610715115.9,286047004.8,N
1610715135.7,286047005.9,N
1610715155.5,286047004.0,N
1610715175.4,286047004.0,N
1610715195.2,286047002.1,N
1610715215.1,286046999.7,N
1610715216.0,286046999.7,N
1610715235.8,286047000.6,N
1610715255.6,286046998.5,N
1610715275.5,286046998.2,N
1610715295.3,286046999.9,N
1610715315.2,286046999.7,N
1610715335.9,286047002.7,N
1610715355.7,286047000.8,N
1610715375.6,286046998.6,N
1610715395.4,286046998.7,N
1610715415.2,286046998.9,N
1610715435.1,286046997.3,N
1610715436.0,286046997.3,N
1610715455.8,286046995.8,N
1610715475.7,286046996.4,N
1610715495.5,286046996.1,N
1610715515.3,286046995.8,N
1610715535.2,286046996.3,N
1610715555.0,286046995.3,N
1610715555.9,286046995.3,N
1610715575.8,286046997.9,N
1610715595.6,286046998.0,N
